KA8UPW-1 Weather Reports


Display with metric or nautical units.
time (UTC)temp
F
wind
direction
speed
MPH
gust
MPH
rain 1hr
in
rain 24hr
in
rain mn
in
humidity
%
barometer
mb
20260504045623 51 0 0.0 0.0 0.00 0.00 0.00 64 1009.7
20260504044720 51 0 0.0 0.0 0.00 0.00 0.00 65 1009.7
20260504043604 51 0 0.0 0.0 0.00 0.00 0.00 65 1009.7
20260504042703 50 0 0.0 0.0 0.00 0.00 0.00 67 1009.8
20260504041803 50 0 0.0 0.0 0.00 0.00 0.00 67 1009.9
20260504040904 50 0 0.0 0.0 0.00 0.00 0.00 68 1009.9
20260504040009 49 0 0.0 0.0 0.00 0.00 0.00 68 1009.9
20260504035403 49 0 0.0 0.0 0.00 0.00 0.00 69 1010.0
20260504034503 49 0 0.0 0.0 0.00 0.00 0.00 69 1010.0
20260504033818 49 0 0.0 0.0 0.00 0.00 0.00 69 1010.2
20260504032703 48 0 0.0 0.0 0.00 0.00 0.00 70 1010.3
20260504032017 48 0 0.0 0.0 0.00 0.00 0.00 71 1010.3
20260504030904 48 0 0.0 0.0 0.00 0.00 0.00 71 1010.4
20260504030004 49 0 0.0 0.0 0.00 0.00 0.00 72 1010.5
20260504025403 49 0 0.0 0.0 0.00 0.00 0.00 72 1010.6
20260504024504 49 0 0.0 0.0 0.00 0.00 0.00 72 1010.6
20260504023603 49 0 0.0 0.0 0.00 0.00 0.00 72 1010.7
20260504022703 50 0 0.0 0.0 0.00 0.00 0.00 72 1010.8
20260504021803 50 0 0.0 0.0 0.00 0.00 0.00 72 1010.7
20260504020903 50 0 0.0 0.0 0.00 0.00 0.00 72 1010.7
20260504015619 50 0 0.0 0.0 0.00 0.00 0.00 71 1010.7
20260504014504 50 0 0.0 0.0 0.00 0.00 0.00 71 1010.7
20260504013819 50 0 0.0 0.0 0.00 0.00 0.00 72 1010.7
20260504012703 50 0 0.0 0.0 0.00 0.00 0.00 71 1010.7
20260504011804 50 0 0.0 0.0 0.00 0.00 0.00 70 1010.7
20260504011121 50 0 0.0 0.0 0.00 0.00 0.00 70 1010.8
20260504010004 50 0 0.0 0.0 0.00 0.00 0.00 69 1010.9
20260504005404 50 0 0.0 0.0 0.00 0.00 0.00 69 1011.0
20260504004504 50 0 0.0 0.0 0.00 0.00 0.00 68 1011.2
20260504003604 50 0 0.0 0.0 0.00 0.00 0.00 67 1011.1
20260504002704 51 0 0.0 0.0 0.00 0.00 0.00 66 1011.1
20260504001804 51 0 0.0 0.0 0.00 0.00 0.00 66 1011.2
20260504000903 51 0 0.0 0.0 0.00 0.00 0.00 65 1011.2
20260504000004 52 0 0.0 0.0 0.00 0.00 0.00 63 1011.1
20260503235404 52 0 0.0 0.0 0.00 0.00 0.00 62 1011.0
20260503234504 53 0 0.0 0.0 0.00 0.00 0.00 59 1011.0
20260503233820 55 0 0.0 0.0 0.00 0.00 0.00 56 1010.8
20260503232703 57 0 0.0 0.0 0.00 0.00 0.00 46 1010.4
20260503231804 57 0 0.0 0.0 0.00 0.00 0.00 46 1010.4
20260503230903 57 0 0.0 0.0 0.00 0.00 0.00 45 1010.5
20260503230004 57 0 0.0 0.0 0.00 0.00 0.00 45 1010.5
20260503225404 58 0 0.0 0.0 0.00 0.00 0.00 45 1010.6
20260503224503 58 0 0.0 0.0 0.00 0.00 0.00 44 1010.6
20260503223604 58 0 0.0 0.0 0.00 0.00 0.00 45 1010.6
20260503222703 58 0 0.0 0.0 0.00 0.00 0.00 44 1010.7
20260503222021 58 0 0.0 0.0 0.00 0.00 0.00 45 1010.9
20260503220903 58 0 0.0 0.0 0.00 0.00 0.00 43 1010.9
20260503220004 58 0 0.0 0.0 0.00 0.00 0.00 43 1010.9
20260503215617 58 0 0.0 0.0 0.00 0.00 0.00 43 1011.0
20260503214504 58 0 0.0 0.0 0.00 0.00 0.00 44 1011.0
20260503213822 58 0 0.0 0.0 0.00 0.00 0.00 44 1011.0
20260503212919 59 0 0.0 0.0 0.00 0.00 0.00 44 1011.0
20260503212021 59 0 0.0 0.0 0.00 0.00 0.00 44 1011.0
20260503210904 59 0 0.0 0.0 0.00 0.00 0.00 44 1011.2
20260503210005 59 0 0.0 0.0 0.00 0.00 0.00 44 1011.2
20260503205403 59 0 0.0 0.0 0.00 0.00 0.00 45 1011.2
20260503204503 59 0 0.0 0.0 0.00 0.00 0.00 43 1011.3
20260503203603 59 0 0.0 0.0 0.00 0.00 0.00 43 1011.3
20260503202920 59 0 0.0 0.0 0.00 0.00 0.00 44 1011.5
20260503202017 60 0 0.0 0.0 0.00 0.00 0.00 44 1011.4
20260503200903 59 0 0.0 0.0 0.00 0.00 0.00 44 1011.6
20260503200004 58 0 0.0 0.0 0.00 0.00 0.00 46 1011.7
20260503195404 58 0 0.0 0.0 0.00 0.00 0.00 43 1011.8
20260503194503 59 0 0.0 0.0 0.00 0.00 0.00 43 1011.9
20260503193603 59 0 0.0 0.0 0.00 0.00 0.00 44 1012.1
20260503192703 59 0 0.0 0.0 0.00 0.00 0.00 44 1012.1
20260503191803 58 0 0.0 0.0 0.00 0.00 0.00 45 1012.3
20260503190903 58 0 0.0 0.0 0.00 0.00 0.00 44 1012.5
20260503190004 59 0 0.0 0.0 0.00 0.00 0.00 46 1012.7
20260503185405 58 0 0.0 0.0 0.00 0.00 0.00 43 1012.8
20260503184721 58 0 0.0 0.0 0.00 0.00 0.00 45 1012.8
20260503183603 58 0 0.0 0.0 0.00 0.00 0.00 44 1013.0
20260503182921 58 0 0.0 0.0 0.00 0.00 0.00 44 1013.0
20260503182018 58 0 0.0 0.0 0.00 0.00 0.00 42 1013.2
20260503180904 58 0 0.0 0.0 0.00 0.00 0.00 45 1013.2
20260503180218 58 0 0.0 0.0 0.00 0.01 0.00 45 1013.3
20260503175403 59 0 0.0 0.0 0.00 0.01 0.00 43 1013.4
20260503174503 59 0 0.0 0.0 0.00 0.01 0.00 45 1013.4
20260503173608 59 0 0.0 0.0 0.00 0.01 0.00 45 1013.5
20260503172703 58 0 0.0 0.0 0.00 0.01 0.00 48 1013.6
20260503172019 58 0 0.0 0.0 0.00 0.01 0.00 47 1013.7
20260503170903 58 0 0.0 0.0 0.00 0.01 0.00 53 1013.9
20260503130903 45 0 0.0 0.0 0.00 0.04 0.00 61 1015.4
20260503110217 33 0 0.0 0.0 0.00 0.04 0.00 86 1014.9
20260503080903 33 0 0.0 0.0 0.00 0.04 0.00 90 1014.6
20260503072703 33 0 0.0 0.0 0.00 0.04 0.00 89 1014.6
20260503071803 34 0 0.0 0.0 0.00 0.04 0.00 90 1014.6
20260503070903 34 0 0.0 0.0 0.00 0.04 0.00 89 1014.6
20260503054503 36 0 0.0 0.0 0.00 0.04 0.00 86 1014.9
20260503053603 36 0 0.0 0.0 0.00 0.04 0.00 87 1015.0
20260503052703 36 0 0.0 0.0 0.00 0.05 0.00 88 1014.9
20260503051803 37 0 0.0 0.0 0.00 0.05 0.00 87 1014.9
20260503050904 37 0 0.0 0.0 0.00 0.05 0.00 87 1014.9
20260503050003 38 0 0.0 0.0 0.00 0.05 0.00 87 1014.9